Accueil
METAR-TAF:

METAR-TAF

Aéroports :

Aitutaki, Îles Cook

latitude: 18-49-51S, longitude: 159-45-51W, altitude: 4 m

Observation

Le bulletin a été fait il y a 44 minutes, à 09:00 UTC
Vent 9 kt de est, variant entre nord-est et est/sud-est
Température 26°C
Humidité 100%
Pression 1011 hPa

METAR: NCAI 240900Z AUTO 09009KT 050V120 //// ////// 26/26 Q1011

Heure: 23:44 (09:44 UTC)


TAF: absent

Observations et prévisions météorologiques de plus de 4000 aéroports (messages METAR et TAF).

Les stations disponibles sont représentées par des disques jaunes et rouges sur la carte.

Passer la souris dessus pour voir le nom de la station.

Cliquer dessus pour voir les observations et prévisions météorologiques.

Pour changer de carte: cliquez sur les boutons verts avec une croix noire pour zoomer, sur le bouton vert avec un tiret pour effectuer un zoom arrière, ou sur les flèches vertes pour les cartes adjacentes.


METAR-TAF: